METAR AND TAF INFORMATION


GMAD 262330Z 00000KT CAVOK 18/14 Q1010 NOSIG
GMAD 262300Z 00000KT CAVOK 18/15 Q1010 NOSIG
TAF GMAD 262300Z 2700/2806 20005KT CAVOK TEMPO 2702/2709 6000 BKN013 BECMG 2711/2714 26012KT BECMG 2718/2721 20006KT

 AIRPORT MAP

 RUNWAY INFORMATION
Runway 10 Runway length 10499 ft Runway width 148 ft
Runway elevation 198 ft Runway displaced threshold 0 ft Runway heading 92
Runway 28 Runway length 10499 ft Runway width 148 ft
Runway elevation 254 ft Runway displaced threshold 0 ft Runway heading 272

 AIRPORT FREQUENCIES
Type APP Name AGADIR APP Frequency 120.9 MHZ
Type TWR Name AGADIR TWR Frequency 119.5 MHZ

 AIRPORT NEAR NAVIGATION AIDS
Type VOR-DME Name Agadir Frequency 117200 KHZ
Type NDB Name Agadir Frequency 396 KHZ
Type NDB Name Agadir Frequency 402 KHZ